Погода в Томпсоне

Канада     55°44′40″N   97°51′07″W
темп.,
°C
ветер,
м/с
пор.,
м/с
влажн.,
%
обл.,
%
осадки,
мм/ч
давл.,
гПа
погр.,
м
13 августа, сб
сб1301:00+11св11730 0.0 101810
04:00+10юв11794 0.0 101910
07:00+10вюв11800 0.0 101911
10:00+19ююв12510 0.0 1019594
13:00+24ююз11350 0.0 10171845
16:00+26юз01311 0.0 10162083
19:00+24юв11330 0.0 10151978
22:00+16юв35540 0.0 101666
14 августа, вс
вс1401:00+14юв2267100 0.0 101618
04:00+12ю2271100 0.0 101723
07:00+12ююв12720 0.0 101726
10:00+21юв23420 0.0 1017523
13:00+25юв34290 0.0 10161859
16:00+26юв34260 0.0 10152218
19:00+25юв33300 0.0 10151959
22:00+16юв22570 0.0 101714
15 августа, пн
пн1501:00+14ююв22630 0.0 101819
04:00+12ююв22720 0.0 101822
07:00+12юв24840 0.0 101885
10:00+21ююв35550 0.0 1017703
13:00+25ююв45370 0.0 10161801
16:00+27ю45310 0.0 10152097
19:00+26ю343599 0.0 10141381
22:00+18ю22565 0.0 101414
16 августа, вт
вт1601:00+16ю22645 0.0 101523
04:00+15ю227152 0.0 101425
07:00+15юз227359 0.0 101453
10:00+23ююз34539 0.0 1013591
13:00+28ююз333958 0.0 10121553
16:00+30юз3335100 0.0 10112187
19:00+29ююз3435100 0.0 10101242
22:00+19сз41084100 0.9 1013297
17 августа, ср
ср1701:00+16ююз23953 1.0 101254
04:00+15юз23945 0.0 101251
07:00+16юз269651 0.0 1012155
10:00+23зсз246353 0.0 1011410
13:00+29зсз2435100 0.0 10111415
16:00+29зсз4531100 0.0 10111786
19:00+28зсз4637100 0.0 1010881
22:00+18сз2372100 0.4 101143